STARLINK-31869, 60196

Orbit data source: Space-Track

STARLINK-31869, 60196 is a payload satellite owned by SpaceX/Seattle (US) in LEO that was launched on Wed, 03 Jul 2024 UTC via an FALCON 9 launch vehicle from the Air Force Eastern Test Range (AFETR). Payloads include a variety of satellites, spacecraft, and rockets equipped with specific instruments for various scientific and technological missions. These include communications satellites like Starlink; space stations such as the ISS; scientific satellites like the Hubble; Earth observation satellites from companies like Planet Labs, Umbra, and HawkEye 360; GPS; miniature CubeSats for education and research; and military/defense satellites.

Loading next visibility...
STARLINK-31869 details
Identifier
60196, 2024-124P
Orbit
LEO
Last TLE update9 hours ago
Origin
Flag of USSpaceX/Seattle (US)
ManufacturerSpaceX/Seattle
MissionOperational spacecraft
Bus & MotorSTARLINK V2M, Unknown motor
Mass730 kg wet, ~700 kg dry
Launch date (UTC)
2024-07-03 (6 months ago)
Launch vehicle
FALCON 9
Launch site
Air Force Eastern Test Range (AFETR)
Object type
Payload
Rocket body
Debris
Shape & HBRUnknown
Radar Cross SectionLarge (>1 m²)

Expand to show TLE details & history

TLE from 9 hours ago
0 STARLINK-31869
1 60196U 24124P   24356.16667824  .00011875  00000-0  41249-3 0  9990
2 60196  53.1601 222.5420 0001120  77.4620 203.7713 15.30193986 27464
Epoch: 2024-12-21T04:00Z
Definitive object data (Epoch: 2024-12-21T04:00:00.999Z)
Latitude-51.88083°
Longitude0.59456°
Altitude493.927 km
Speed7.617 km/s
True Right ascension10h 03m 16s
True Declination-51° 42' 26"
Sunlit
Object was in daylight at TLE epoch
Visualization TLE readout
Latitude-27.49312°
Longitude-86.63539°
Altitude483.948 km
Speed7.623 km/s
Apparent Right ascension02h 26m 22s
Apparent Declination-37° 19' 21"
Sunlit
Object is in full shadow
Visualization observer readout
Local Sidereal Time12:08:55
Azimuth264.426° W
Elevation-63.193°
Doppler factor1
Orbital elements
Apogee altitude476.257 km
Perigee altitude474.722 km
Semi-major axis6,853.626 km
Eccentricity0.000112
Inclination53.1601°
RAAN222.542°
Arg. of periapsis77.462°
True anomaly203.76613°
Mean anomaly203.7713°
Eccentric anomaly203.76871°
Mean motion3.82527 °/min
BSTAR0.00041249
Orbital period94.11 mins
Loading maneuver chart data...
Loading historical data...
Loading historical data...
Loading historical data...
Loading historical data...
Loading historical data...
Loading historical data...
Loading historical data...

STARLINK-31869 Visibility forecast

Observer location: undefined°, undefined

Span
Click to sort rows by Start time (UTC) header in descending order
Start Az.
Max El. time (UTC)
Max El. Az.
Max El.
End time (UTC)
End Az.
5 mins2024-12-21 17:02:00.906Z175.354° S2024-12-21 17:05:00.906Z118.458° SE18.498°2024-12-21 17:07:00.906Z83.669° E
5 mins2024-12-21 18:40:00.906Z258.019° W2024-12-21 18:42:00.906Z312.613° NW36.009°2024-12-21 18:45:00.906Z36.432° NE
4 mins2024-12-21 23:38:00.906Z359.581° N2024-12-21 23:39:00.906Z24.311° NE21.749°2024-12-21 23:42:00.906Z81.053° E
5 mins2024-12-22 01:15:00.906Z295.101° NW2024-12-22 01:17:00.906Z239.124° WSW38.846°2024-12-22 01:20:00.906Z149.421° SSE
|